Fitchburg, MA

2:54 PM EDT on June 28, 2017 (GMT -0400)
Fitchburg Municipal

Weather History for KFIT - February, 2013

Change the Weather History Date:

Wednesday, February 13, 2013

  Actual Average (KORH) Record (KORH)
Temperature  
Mean Temperature 34 °F -  
Max Temperature 41 °F 32 °F 59 °F (1900)
Min Temperature 26 °F 15 °F -12 °F (1967)
Degree Days  
Heating Degree Days 32    
Moisture  
Dew Point 21 °F    
Average Humidity 60    
Maximum Humidity 75    
Minimum Humidity 41    
Precipitation  
Precipitation 0.00 in - - ()
Sea Level Pressure  
Sea Level Pressure 29.81 in    
Wind  
Wind Speed 4 mph (WNW)    
Max Wind Speed 9 mph    
Max Gust Speed -    
Visibility 10 miles    
Events      
Averages and records for this station are not official NWS values.
T = Trace of Precipitation, MM = Missing Value Source: NWS Daily Summary

Daily Weather History Graph

Daily Weather History Graph

Search for Another Location

Airport or City:

Trip Planner

Search our weather history database for the weather conditions in past years. The results will help you decide how hot, cold, wet, or windy it might be!

Date:

Astronomy

Feb. 13, 2013 Rise Set
Actual Time 6:46 AM EST 5:16 PM EST
Civil Twilight 6:17 AM EST 5:45 PM EST
Nautical Twilight 5:44 AM EST 6:18 PM EST
Astronomical Twilight 5:11 AM EST 6:51 PM EST
Moon 8:08 AM EST (2/13) 9:23 PM EST (2/13)
Length of Visible Light 11h 28m
Length of Day
10h 30m
Waxing Crescent, 13% of the Moon is Illuminated
Feb 13
Waxing Crescent
Feb 17
First Quarter
Feb 25
Full
Mar 4
Last Quarter
Mar 11
New

Hourly Weather History & Observations

Time (EST) Temp. Windchill Dew Point Humidity Pressure Visibility Wind Dir Wind Speed Gust Speed Precip Events Conditions
12:52 AM 34.0 °F 27.2 °F 19.9 °F 56% 29.84 in 10.0 mi West 8.1 mph - N/A   Clear
1:52 AM 32.0 °F - 19.9 °F 61% 29.84 in 10.0 mi Calm Calm - N/A   Partly Cloudy
2:52 AM 32.0 °F 26.4 °F 21.0 °F 64% 29.84 in 10.0 mi WNW 5.8 mph - N/A   Overcast
3:52 AM 34.0 °F 28.8 °F 21.9 °F 61% 29.86 in 10.0 mi West 5.8 mph - N/A   Overcast
4:52 AM 32.0 °F 28.7 °F 21.0 °F 64% 29.86 in 10.0 mi West 3.5 mph - N/A   Clear
5:52 AM 30.9 °F - 19.9 °F 64% 29.85 in 10.0 mi Calm Calm - N/A   Clear
6:52 AM 26.1 °F - 18.0 °F 71% 29.86 in 10.0 mi Calm Calm - N/A   Clear
7:52 AM 28.9 °F - 19.9 °F 69% 29.87 in 10.0 mi Calm Calm - N/A   Clear
8:52 AM 36.0 °F 29.0 °F 21.9 °F 57% 29.87 in 10.0 mi NW 9.2 mph - N/A   Clear
9:52 AM 36.0 °F 30.3 °F 21.0 °F 55% 29.86 in 10.0 mi NW 6.9 mph - N/A   Scattered Clouds
10:52 AM 37.9 °F 32.1 °F 21.9 °F 53% 29.83 in 10.0 mi WNW 8.1 mph - N/A   Scattered Clouds
11:52 AM 37.9 °F - 21.0 °F 51% 29.83 in 10.0 mi Calm Calm - N/A   Mostly Cloudy
12:52 PM 39.0 °F 34.0 °F 21.0 °F 49% 29.81 in 10.0 mi WNW 6.9 mph - N/A   Overcast
1:52 PM 39.9 °F 35.1 °F 21.0 °F 47% 29.81 in 10.0 mi West 6.9 mph - N/A   Scattered Clouds
2:52 PM 41.0 °F 39.0 °F 19.9 °F 43% 29.78 in 10.0 mi WNW 3.5 mph - N/A   Clear
3:52 PM 41.0 °F - 19.0 °F 41% 29.75 in 10.0 mi Calm Calm - N/A   Clear
4:52 PM 39.0 °F 35.7 °F 19.9 °F 46% 29.76 in 10.0 mi WSW 4.6 mph - N/A   Clear
5:52 PM 34.0 °F - 21.9 °F 61% 29.75 in 10.0 mi Calm Calm - N/A   Clear
6:52 PM 30.0 °F 26.5 °F 21.9 °F 72% 29.75 in 10.0 mi NNW 3.5 mph - N/A   Clear
7:52 PM 30.0 °F 26.5 °F 23.0 °F 75% 29.75 in 10.0 mi NW 3.5 mph - N/A   Clear
8:52 PM 30.0 °F 25.2 °F 21.9 °F 72% 29.75 in 10.0 mi WNW 4.6 mph - N/A   Scattered Clouds
9:52 PM 30.9 °F 27.5 °F 21.9 °F 69% 29.74 in 10.0 mi NNW 3.5 mph - N/A   Overcast
10:52 PM 32.0 °F - 23.0 °F 69% 29.73 in 10.0 mi Calm Calm - N/A   Overcast
11:52 PM 32.0 °F 27.5 °F 21.9 °F 66% 29.73 in 10.0 mi NNW 4.6 mph - N/A   Overcast